Location: Township of Marena
(38.1747°N, 99.6798°W)
Time: 10:56:45
(UTC+00:00)

Cosmos 1992 Rocket - Pass Details

Date: 26 October 2020
Orbit: 759 x 765 km, 74.0° (Epoch: 24 November)

Event Time Altitude Azimuth Distance (km) Brightness Sun altitude
Rises 01:02:48 0° 179° (S) 3,204 7.3 -15.5°
Reaches altitude 10° 01:05:15 10° 173° (S) 2,282 6.4 -16.0°
Maximum altitude 01:10:08 44° 102° (ESE) 1,048 4.2 -17.0°
Enters shadow 01:13:54 16° 37° (NE) 1,891 5.7 -17.7°
